Location: Leaveland
(51.2333°N, 0.8500°E)
Time: 10:32:15
(UTC+00:00)

Daily predictions for brighter satellites

Satellite Brightness Start Highest point End
(mag) Time Altitude Azimuth Time Altitude Azimuth Time Altitude Azimuth
ATLAS 3B R/B 3.6 20:10:58 10° NW 20:17:44 50° WSW 20:24:46 10° SSE
CZ-4C R/B 4.4 20:12:45 10° WNW 20:17:48 29° N 20:23:45 10° NE
Cosmos 2360 Rocket 2.9 20:12:33 10° NNW 20:17:54 42° NE 20:23:14 10° ESE
ATLAS 2AS CENTAUR R/B 3.5 20:13:45 10° WSW 20:21:38 69° NW 20:29:16 10° NE
Resurs 1-3 4.2 20:17:46 10° S 20:22:05 58° W 20:26:27 10° NNW
MetOp-B 4.3 20:20:18 10° SSE 20:25:37 67° ENE 20:30:58 10° N
Cosmos 2221 4.3 20:21:58 10° NNW 20:25:50 33° W 20:29:42 10° SSW
Cosmos 1092 Rocket 4.2 20:21:22 10° S 20:27:30 58° E 20:33:43 10° NNE
ISS -1.3 20:26:44 10° WSW 20:28:42 15° SW 20:30:39 10° S
NOSS 2-1 (C) 4.4 20:29:35 10° SSE 20:31:45 16° ESE 20:33:55 10° ENE
Cosmos 2151 2.9 20:27:59 10° S 20:32:13 76° E 20:36:31 10° NNE
ERS-2 2.1 20:29:51 10° NNE 20:33:31 81° ESE 20:37:09 10° SSW
Cosmos 2026 Rocket 4.2 20:30:23 10° SSE 20:36:31 55° E 20:42:35 10° NNE
Cosmos 1812 3.7 20:33:38 10° N 20:37:09 32° ENE 20:40:31 11° SE
Cosmos 2084 4.2 20:33:44 10° S 20:37:13 28° ESE 20:40:46 10° ENE
COSMOS 2455 4.5 20:35:23 10° SE 20:38:21 14° ESE 20:41:22 10° ENE
Cosmos 158 Rocket 4.0 20:33:40 10° SSW 20:38:52 84° ESE 20:44:14 10° NNE
Cosmos 2333 Rocket 3.3 20:33:46 10° NNW 20:38:54 34° NE 20:44:02 10° ESE
Cosmos 1980 Rocket 4.1 20:34:25 10° NW 20:39:02 27° WSW 20:43:39 10° SSW
GP-B 3.5 20:34:50 10° NNE 20:39:08 47° E 20:43:25 10° SSE
NOSS 2-1 (D) 4.2 20:37:00 10° SSE 20:39:27 19° ESE 20:41:55 10° ENE
BREEZE-M DEB (TANK) 4.3 20:38:21 10° W 20:41:29 39° SSW 20:49:45 10° SE
Cosmos 923 Rocket 4.1 20:37:28 10° S 20:42:42 59° ESE 20:47:57 10° NNE
SPOT 1/Viking Rocket 3.6 20:39:22 10° SSE 20:44:33 83° ENE 20:49:49 10° NNW
Nadezhda 4 Rocket 4.3 20:38:36 10° SSW 20:44:47 72° WNW 20:51:04 10° N
ERS-1 Rocket 3.6 20:40:26 10° SE 20:45:09 43° ENE 20:49:53 10° N
GEOS 3 Rocket 4.1 20:41:46 10° NE 20:46:59 68° NW 20:52:05 10° WSW
USA 245 3.5 20:42:36 10° SSE 20:47:15 70° ENE 20:50:59 10° N
SL-27 R/B 3.9 20:44:41 11° SSE 20:47:16 21° E 20:50:01 10° NE
USA 276 4.2 20:48:49 10° WSW 20:50:59 17° SSW 20:53:09 10° S
Cosmos 2237 Rocket 4.3 20:47:15 10° NNW 20:51:02 18° NNE 20:54:50 10° ENE
Cosmos 2056 Rocket 3.7 20:46:05 10° NNW 20:51:27 67° ENE 20:56:16 12° SE
Cosmos 2322 Rocket 2.3 20:46:46 10° NNW 20:52:26 81° WSW 20:57:55 11° SSE
Okean 3 Rocket 4.0 20:48:48 10° SSE 20:53:05 45° E 20:57:25 10° NNE
CARTOSAT-1 3.5 20:59:31 12° SSE 21:03:34 79° ENE 21:07:55 10° NNW
Cosmos 1428 Rocket 4.4 20:57:55 10° S 21:04:03 84° E 21:10:12 10° N
Gblst 52 Del rocket 4.4 20:58:25 10° W 21:04:19 89° S 21:11:02 10° ESE
USA 234 3.9 20:59:38 10° E 21:06:00 55° N 21:12:22 10° WNW
Spot 2 Rocket 3.5 21:03:04 11° SSE 21:08:00 87° ENE 21:13:09 10° NNW
Cosmos 2219 Rocket 2.9 21:04:32 10° NNW 21:09:53 43° NE 21:14:26 14° ESE
Cosmos 1371 Rocket 4.2 21:07:54 10° NNW 21:13:18 79° WSW 21:17:55 14° SSE
Resurs 01 Rocket 3.2 21:10:59 10° SSW 21:14:57 32° W 21:18:59 10° NNW
Cosmos 1680 Rocket 3.5 21:11:22 10° SSW 21:16:39 82° ESE 21:21:55 10° NNE
Cosmos 2112 Rocket 4.0 21:11:53 10° SSW 21:17:09 73° ESE 21:22:25 10° NNE
Cosmos 1515 Rocket 3.8 21:13:08 10° N 21:17:32 56° ENE 21:20:37 18° SSE
Cosmos 1151 Rocket 3.3 21:13:18 10° NNW 21:17:40 68° W 21:21:47 11° S
Cosmos 1553 Rocket 3.9 21:14:47 10° N 21:20:54 87° E 21:26:23 13° S
Terra 2.0 21:19:00 17° SSE 21:22:32 62° ENE 21:27:15 10° N
SL-16 R/B 3.2 21:17:40 10° NW 21:22:56 40° WSW 21:28:09 10° S
CZ-2C R/B 3.8 21:22:03 10° NNE 21:26:35 76° WNW 21:31:01 10° SSW
ATLAS 5 CENTAUR R/B 2.8 21:22:40 10° NW 21:27:45 52° NE 21:33:05 13° ESE
Cosmos 2333 4.2 21:23:38 10° NNW 21:29:16 75° ENE 21:33:17 20° SE
Cosmos 1809 Rocket 4.4 21:24:46 10° S 21:30:56 88° E 21:37:06 10° N
Cosmos 1328 Rocket 3.9 21:27:03 10° NNW 21:31:28 65° W 21:35:09 14° S
Cosmos 2228 Rocket 4.0 21:28:48 10° N 21:32:53 35° ENE 21:35:17 20° SE
Cosmos 1766 Rocket 3.8 21:28:46 10° SSW 21:33:09 72° WNW 21:37:31 10° N
NOSS 2-1 (E) 2.8 21:34:12 10° SSW 21:37:25 61° SE 21:40:53 10° NE
COSMOS 2428 3.1 21:31:56 10° NNW 21:37:34 55° NE 21:41:31 19° SE
SPOT 5 2.8 21:36:48 18° S 21:39:59 69° WSW 21:44:28 10° NNW
ARIANE 5 R/B 3.1 21:36:31 15° S 21:40:07 57° W 21:44:30 10° NNW
Cosmos 1862 3.2 21:39:48 15° S 21:43:01 89° W 21:47:01 10° N
NOSS 3-1 (C) 4.1 21:35:43 10° NW 21:43:02 82° SW 21:49:24 20° SE
Cosmos 292 Rocket 3.8 21:39:22 10° NNW 21:44:08 74° WSW 21:47:10 22° SSE
Meteor 2-6 Rocket 4.5 21:42:23 10° NNW 21:47:44 62° W 21:52:01 16° S
S3M 4.1 21:46:36 10° NNW 21:53:01 83° W 21:57:51 19° S
Meteor 2-21 Rocket 4.4 21:50:10 13° S 21:55:51 88° E 22:02:03 10° N
USA 229 DEB 3.9 21:51:45 10° NW 21:59:01 86° NE 22:04:27 22° SE
USA 229 3.9 21:51:50 10° NW 21:59:07 86° NE 22:04:33 21° SE
Cosmos 1655 Rocket 4.0 21:54:13 16° S 21:59:23 79° E 22:05:50 10° NNE
COSMOS 2487 2.9 22:00:10 37° SE 22:00:35 39° ESE 22:03:47 10° NE
ALOS 2 4.4 21:59:22 14° E 22:01:40 21° ENE 22:04:57 10° NNE
Cosmos 2360 Rocket 3.0 21:56:39 10° NW 22:01:56 42° WSW 22:05:41 18° S
Cosmos 972 Rocket 4.2 21:59:17 24° SSE 22:02:05 49° ESE 22:06:51 10° NNE
Cosmos 1805 Rocket 4.1 22:02:11 29° SE 22:03:48 41° E 22:07:59 10° NNE
Cosmos 1174 4.4 22:03:12 10° WNW 22:05:50 28° WSW 22:06:29 26° SW
Cosmos 2084 Rocket 4.1 22:02:41 10° NW 22:06:43 49° NE 22:09:17 21° ESE
CZ-4C R/B 4.2 22:02:21 10° NW 22:08:10 34° NNE 22:15:01 10° E
USA 267 3.9 22:06:58 10° ENE 22:12:37 30° SE 22:14:47 25° SSE
Cosmos 1980 4.5 22:08:27 10° NNW 22:13:53 44° NE 22:17:31 20° ESE
Cosmos 1500 Rocket 3.5 22:11:54 26° S 22:14:20 87° E 22:18:49 10° N
NOSS 0 Rocket 4.2 22:08:51 10° NNW 22:15:04 64° NE 22:18:54 24° SE
Cosmos 2084 4.2 22:12:28 10° WSW 22:16:28 52° NW 22:20:38 10° NE
NOSS 3-1 (A) 4.1 22:12:11 10° NW 22:19:30 80° SW 22:25:00 25° SSE
NOSS 2-1 (C) 3.9 22:18:36 10° WSW 22:21:46 47° NW 22:25:14 10° NE
SL-27 R/B 4.0 22:18:44 10° SW 22:22:06 37° WNW 22:25:30 10° N
Meteor 1-27 Rocket 3.9 22:16:46 10° NNW 22:22:24 69° W 22:25:47 25° S
Cosmos 1833 4.4 22:17:05 10° SW 22:22:52 75° WNW 22:28:41 10° NNE
COSMOS 2455 2.8 22:17:53 13° SSW 22:23:13 69° ESE 22:29:13 10° NE
Cosmos 2333 Rocket 2.5 22:17:57 10° NW 22:23:29 56° WSW 22:26:23 27° S
Cosmos 1452 Rocket 3.7 22:18:28 10° NNW 22:23:41 65° WSW 22:26:16 30° S
ERS-1 Rocket 4.3 22:20:25 14° SSW 22:24:04 32° W 22:28:34 10° NNW
Lacrosse 5 3.5 22:25:50 18° ESE 22:25:50 18° ESE 22:28:06 10° E
H-2A R/B 3.4 22:20:49 10° NNE 22:25:02 89° WNW 22:27:05 30° SSW
Meteor 1-20 Rocket 4.4 22:23:03 30° SSE 22:25:40 55° E 22:31:14 10° NNE
COBE Rocket 3.8 22:26:51 35° SSE 22:28:46 69° ENE 22:33:29 10° N
NOSS 2-1 (D) 4.2 22:26:26 10° WSW 22:29:34 41° NW 22:33:00 10° NE
BREEZE-M R/B 3.9 22:26:57 10° SW 22:31:56 24° ESE 22:34:07 10° E
Cosmos 2322 4.1 22:25:01 10° NW 22:30:35 53° WSW 22:33:25 28° S
Cosmos 2297 Rocket 3.5 22:32:08 21° ESE 22:32:59 22° ESE 22:37:13 10° NE
Cosmos 1500 4.3 22:34:31 28° E 22:34:50 29° E 22:38:11 10° NNE
Cosmos 1743 Rocket 3.9 22:32:53 24° SSW 22:35:28 61° WNW 22:39:53 10° N
Sich 1 3.0 22:34:10 41° SSE 22:35:32 66° E 22:39:51 10° NNE
Cosmos 2322 Rocket 4.4 22:32:30 10° WNW 22:35:34 15° W 22:38:39 10° SW
Cosmos 2237 Rocket 2.6 22:30:46 10° NNW 22:36:23 58° NE 22:39:29 26° ESE
BREEZE-M DEB (TANK) 3.1 22:38:46 10° W 22:42:20 30° SW 22:42:20 30° SW
Cosmos 1633 Rocket 3.6 22:44:03 36° ESE 22:44:55 41° E 22:49:01 10° NNE
Cosmos 2227 Rocket 3.6 22:44:30 20° ESE 22:45:17 21° E 22:49:21 10° NE
Cosmos 1110 Rocket 4.0 22:40:40 10° NNW 22:46:01 78° WSW 22:48:10 37° S
Cosmos 1331 Rocket 3.9 22:43:13 10° NNW 22:48:29 81° WSW 22:50:32 38° SSE
USA 234 3.3 22:42:59 14° ESE 22:48:45 82° NNE 22:55:20 10° WNW
Cosmos 1666 Rocket 3.7 22:50:45 44° SE 22:51:50 57° E 22:56:14 10° NNE
Cosmos 2219 Rocket 2.9 22:48:38 10° NW 22:53:50 41° WSW 22:56:08 28° SSW
NOSS 2-2 (E) 4.3 22:51:54 10° NW 22:57:02 87° NE 23:00:50 28° SE
Terra 3.8 22:57:53 13° SW 23:00:42 20° W 23:04:14 10° NW
Cosmos 1515 4.1 23:00:35 10° NNW 23:04:16 52° W 23:04:57 45° SW
Spot 4 3.9 23:03:05 41° S 23:04:43 73° WSW 23:09:35 10° NNW
SL-16 R/B 3.2 23:00:28 10° NNW 23:05:48 40° NE 23:09:38 18° ESE
Meteor 1-18 Rocket 4.2 23:02:29 10° NNW 23:08:23 86° W 23:10:44 38° S
Meteor 1-25 Rocket 4.2 23:06:07 31° SSW 23:08:52 78° WNW 23:14:28 10° N
ATLAS 5 CENTAUR R/B 2.8 23:07:14 10° NW 23:12:31 46° SW 23:14:35 34° S
Cosmos 1862 Rocket 3.4 23:08:44 10° N 23:13:07 87° E 23:14:06 54° SSE
SL-08 R/B 4.4 23:11:22 36° S 23:14:02 73° E 23:20:11 10° NNE
Okean 1 3.6 23:10:23 10° NNW 23:14:20 59° W 23:15:05 49° SW
Cosmos 1602 4.0 23:14:27 45° SW 23:15:21 59° WNW 23:19:11 10° N
Cosmos 494 Rocket 4.0 23:12:47 30° SW 23:15:21 76° WNW 23:20:32 10° NNE
COSMOS 2428 3.8 23:16:36 10° NW 23:21:35 32° WSW 23:23:31 25° SW
SL-08 ROCKET BODY 4.4 23:19:01 35° S 23:21:46 90° N 23:27:59 10° N
Cosmos 1707 Rocket 4.2 23:17:46 10° NNW 23:21:56 45° W 23:23:04 36° SW
NOSS 2-2 (C) 4.2 23:16:55 10° NW 23:22:01 81° SW 23:25:11 33° SE
Meteor 2-4 Rocket 3.8 23:16:41 10° NNW 23:22:40 86° ENE 23:24:59 39° SSE
Cosmos 1666 2.9 23:26:25 55° ESE 23:26:38 56° E 23:30:25 10° NNE
Cosmos 1703 Rocket 4.1 23:24:19 10° N 23:28:33 47° ENE 23:29:38 38° ESE
Cosmos 1992 Rocket 4.3 23:29:20 10° NNW 23:34:32 62° ENE 23:36:41 34° SE
TSX-5 3.9 23:35:45 59° SSW 23:36:31 83° ESE 23:41:31 10° NE
ALOS 2 2.8 23:36:46 48° SW 23:37:39 57° W 23:42:00 10° NNW
Meteor 1-5 Rocket 4.3 23:35:45 41° SSE 23:37:49 70° E 23:43:43 10° NNE
Cosmos 1745 Rocket 4.0 23:39:17 38° S 23:41:51 82° E 23:48:12 10° NNE
Cosmos 2219 3.4 23:42:23 42° SSE 23:44:04 58° ESE 23:49:44 10° NE
Cosmos 1302 Rocket 4.2 23:39:06 10° NNW 23:44:13 55° WSW 23:45:34 43° SSW
Cosmos 2084 Rocket 4.5 23:42:19 10° WNW 23:45:47 31° WSW 23:45:47 31° WSW
Cosmos 1269 Rocket 3.9 23:47:42 44° SSW 23:49:24 83° ESE 23:54:43 10° NNE
Meteor 1-13 Rocket 4.3 23:44:26 10° N 23:50:15 73° ENE 23:52:27 39° SSE
Meteor 1-14 Rocket 4.3 23:51:46 38° SSW 23:53:59 74° WNW 23:59:41 10° N
Okean 1-7 2.9 23:51:20 10° N 23:55:37 84° E 23:56:19 61° SSE
